#timestamp,LO_Frequency,Hit,StdDev 
1514523615.2,286047005.9,N
1514523635.1,286047006.0,N
1514523636.0,286047006.0,N
1514523655.8,286047005.5,N
1514523675.6,286047002.6,N
1514523695.5,286047002.7,N
1514523715.3,286047001.6,N
1514523735.2,286047001.3,N
1514523755.9,286047003.8,N
1514523775.7,286047004.2,N
1514523795.6,286047000.5,N
1514523815.4,286046999.9,N
1514523835.3,286047002.0,N
1514523855.1,286047000.8,N
1514523856.0,286047000.8,N
1514523875.8,286047000.1,N
1514523895.7,286047000.2,N
1514523915.5,286047001.2,N
1514523935.3,286046999.2,N
1514523955.2,286047000.5,N
1514523975.0,286047001.6,N
1514523975.9,286047001.6,N
1514523995.8,286047004.0,N
1514524015.6,286047004.4,N
1514524035.4,286047001.8,N
1514524055.3,286047001.9,N
1514524075.1,286047001.6,N
1514524095.9,286047004.2,N
1514524115.7,286046998.6,N
1514524135.5,286046999.3,N
1514524155.4,286046997.8,N
1514524175.2,286046997.3,N
1514524195.0,286046998.9,N
1514524196.0,286046998.9,N
1514524215.8,286046998.3,N
1514524235.6,286047000.9,N
1514524255.5,286047002.7,N
1514524275.3,286047001.4,N
1514524295.1,286047001.3,N
1514524315.9,286046998.5,N
1514524335.7,286046999.3,N
1514524355.6,286047001.2,N
1514524375.4,286047002.4,N
1514524395.2,286047004.2,N
1514524415.1,286047003.7,N
1514524416.0,286047003.7,N
1514524435.8,286047001.8,N
1514524455.7,286047001.1,N
1514524475.5,286047002.1,N
1514524495.3,286047000.8,N
1514524515.2,286047000.9,N
1514524535.0,286046999.8,N
1514524535.9,286046999.8,N
1514524555.7,286047001.2,N
1514524575.6,286046996.6,N
1514524595.4,286046996.7,N
1514524615.3,286047001.2,N
1514524635.1,286047000.6,N
1514524655.8,286047002.2,N
1514524675.7,286047000.1,N
1514524695.5,286046996.6,N
1514524715.4,286047001.1,N
1514524735.2,286046999.9,N
1514524755.0,286047002.2,N
1514524755.9,286047002.2,N
1514524775.8,286047002.3,N
1514524795.6,286047001.4,N
1514524815.5,286047003.4,N
1514524835.3,286047003.7,N
1514524855.1,286047001.5,N
1514524875.9,286047001.6,N
1514524895.7,286047002.7,N
1514524915.5,286047001.5,N
1514524935.4,286047002.5,N
1514524955.2,286047003.4,N
1514524975.1,286047005.9,Y
1514524976.0,286047005.9,P
1514524995.8,286047004.0,N
1514525015.6,286047002.6,N
1514525035.5,286046999.9,N
1514525055.3,286047001.2,N
1514525075.2,286047001.2,N
1514525095.9,286046996.8,N
1514525115.7,286046995.0,N
1514525135.6,286046997.5,N
1514525155.4,286046995.1,N
1514525175.2,286046997.4,N
1514525195.1,286046997.3,N
1514525196.0,286046997.3,N
1514525215.8,286046998.4,N
1514525235.7,286046998.2,N
1514525255.5,286047000.1,N
1514525275.3,286046999.7,N
1514525295.2,286047000.7,N
1514525315.0,286046998.4,N
1514525315.9,286046998.4,N
1514525335.8,286046998.6,N
1514525355.6,286046998.9,N
1514525375.4,286046999.5,N
1514525395.3,286047000.9,N
1514525415.1,286047002.2,N
1514525435.8,286047004.4,N
1514525455.7,286047003.2,N
1514525475.5,286047001.9,N
1514525495.4,286047001.9,N
1514525515.2,286047004.4,N
1514525535.0,286047000.6,N
1514525535.9,286047000.6,N
1514525555.8,286046997.9,N
1514525575.6,286046996.6,N
1514525595.5,286046998.3,N
1514525615.3,286047000.9,N
1514525635.1,286047000.1,N
1514525655.9,286047000.1,N
1514525675.7,286047002.3,N
1514525695.5,286047002.3,N
1514525715.4,286046999.7,N
1514525735.2,286047001.6,N
1514525755.1,286047000.5,N
1514525756.0,286047000.5,N
1514525775.8,286047000.0,N
1514525795.6,286047000.4,N
1514525815.5,286047000.1,N
1514525835.3,286047000.3,N
1514525855.2,286047000.0,N
1514525875.9,286046998.4,N
1514525895.7,286046998.6,N
1514525915.6,286046998.2,N
1514525935.4,286047001.0,N
1514525955.2,286046995.4,N
1514525975.1,286046996.7,N
1514525976.0,286046996.7,N
1514525995.8,286046997.2,N
1514526015.7,286046998.3,N
1514526035.5,286047000.2,N
1514526055.3,286047000.6,N
1514526075.2,286046998.1,N
1514526095.0,286047000.6,N
1514526095.9,286047000.6,N
1514526115.8,286046999.9,N
1514526135.6,286047002.4,N
1514526155.4,286047001.2,N
1514526175.3,286046998.4,N
1514526195.1,286046999.1,N
1514526215.9,286046998.3,N
1514526235.7,286047002.2,N
1514526255.5,286047002.5,N
1514526275.4,286047000.2,N
1514526295.2,286047001.6,N
1514526315.0,286047005.3,Y
1514526315.9,286047005.3,P
1514526335.8,286047003.9,N
1514526355.6,286047002.6,N
1514526375.5,286047003.6,N
1514526395.3,286047004.8,N
1514526415.1,286047006.9,Y
1514526435.9,286047003.0,P
1514526455.7,286047002.5,P
1514526475.6,286047003.2,P
1514526495.4,286047005.2,Y
1514526515.2,286047002.6,P
1514526535.1,286047000.3,N
1514526566.0,286046999.7,E
1514526575.0,286047002.4,N
1514526575.9,286047002.4,P
1514526595.8,286047001.1,P
1514526615.6,286046998.1,Y
1514526635.5,286046996.5,P
1514526655.3,286046996.8,N
1514526675.1,286046995.2,N
1514526695.9,286046997.9,N
1514526715.7,286046995.1,N
1514526735.5,286046994.6,N
1514526755.4,286046995.5,N
1514526775.2,286046996.7,N
1514526795.1,286046997.0,N
1514526796.0,286046997.0,N
1514526815.8,286046999.1,N
1514526835.6,286046998.9,N
1514526855.5,286047001.2,N
1514526875.3,286046998.3,N
1514526895.2,286046998.7,N
1514526915.9,286046999.4,N
1514526935.7,286046997.7,N
1514526955.6,286046997.8,N
1514526975.4,286046999.2,N
1514526995.2,286046999.2,N
1514527015.1,286046995.0,N
1514527016.0,286046995.0,N
1514527035.8,286046997.2,N
1514527055.7,286046997.7,N
1514527075.5,286046997.2,N
1514527095.3,286046998.9,N
1514527115.2,286047000.5,N
1514527135.0,286047002.1,N
1514527135.9,286047002.1,N
1514527155.8,286047002.2,N
1514527175.6,286046998.9,N
1514527195.4,286046997.8,N
